Location: Saratoga Springs
(43.0831°N, 73.7850°W)
Time: 12:56:36
(UTC-04:00)

Vanguard 1 - Visible Passes

Search period start: 23 April 2024 00:00
Search period end: 03 May 2024 00:00
Orbit: 653 x 3825 km, 34.2° (Epoch: 22 April)

Date Brightness Start Highest point End Pass type
(mag) Time Alt. Az. Time Alt. Az. Time Alt. Az.
23 Apr 13.5 01:53:56 25° SSE 01:58:33 27° SE 02:13:36 10° E visible
23 Apr 12.9 04:06:31 21° SW 04:22:36 50° SSE 04:37:48 10° E visible
24 Apr 13.3 02:12:22 29° SSE 02:18:38 33° SE 02:34:58 10° E visible
24 Apr 12.8 04:24:57 18° SW 04:43:02 55° SSE 04:58:10 10° E visible
25 Apr 13.8 00:18:09 15° ESE 00:18:09 15° ESE 00:25:59 10° ESE visible
25 Apr 13.2 02:30:43 32° S 02:38:47 40° SSE 02:55:56 10° E visible
25 Apr 12.8 04:43:18 14° WSW 05:03:30 60° SSE 05:18:28 10° E visible
26 Apr 13.6 00:36:25 21° SE 00:36:25 21° SE 00:49:38 10° E visible
26 Apr 13.1 02:48:59 33° SSW 02:59:01 46° SSE 03:16:38 10° E visible
26 Apr 12.7 05:01:33 10° WSW 05:23:59 63° S 05:38:42 10° E visible
27 Apr 13.4 00:54:37 27° SE 00:55:19 27° SE 01:11:47 10° E visible
27 Apr 13.0 03:07:10 32° SSW 03:19:20 52° SSE 03:37:10 10° E visible
27 Apr 12.7 05:21:58 10° WSW 05:44:28 64° S 05:58:53 10° ESE visible
28 Apr 13.2 01:12:43 33° SSE 01:15:13 34° SE 01:33:14 10° E visible
28 Apr 12.9 03:25:16 28° SW 03:39:45 57° SSE 03:57:36 10° E visible
28 Apr 13.8 23:18:12 13° ESE 23:18:12 13° ESE 23:22:38 10° E visible
29 Apr 13.1 01:30:44 38° SSE 01:35:12 40° SE 01:54:16 10° E visible
29 Apr 12.9 03:43:17 23° SW 04:00:13 62° SSE 04:17:58 10° E visible
29 Apr 13.6 23:36:07 20° ESE 23:36:07 20° ESE 23:46:34 10° E visible
30 Apr 12.9 01:48:39 40° S 01:55:18 47° SSE 02:15:02 10° E visible
30 Apr 12.8 04:01:12 18° WSW 04:20:44 65° S 04:38:15 10° E visible
30 Apr 13.4 23:53:57 26° SE 23:53:57 26° SE 00:08:53 10° E visible
01 May 12.9 02:06:28 39° SSW 02:15:32 53° SSE 02:35:39 10° E visible
01 May 12.8 04:19:00 12° WSW 04:41:16 66° S 04:58:30 10° ESE visible
02 May 13.1 00:11:39 33° SE 00:11:41 33° SE 00:30:27 10° E visible
02 May 12.9 02:24:10 35° SW 02:35:53 58° SSE 02:56:10 10° E visible
02 May 12.8 04:38:34 10° W 05:01:48 66° S 05:18:40 10° ESE visible
02 May 13.8 22:16:42 11° ESE 22:16:42 11° ESE 22:17:48 10° ESE visible
